TimeEDT,TemperatureF,Dew PointF,Humidity,Sea Level PressureIn,VisibilityMPH,Wind Direction,Wind SpeedMPH,Gust SpeedMPH,PrecipitationIn,Events,Conditions,WindDirDegrees,DateUTC
12:15 AM,50.0,35.6,58,29.97,10.0,Calm,Calm,-,N/A,,Scattered Clouds,0,2013-03-22 04:15:00
12:35 AM,51.8,37.4,58,29.98,10.0,Calm,Calm,-,N/A,,Mostly Cloudy,0,2013-03-22 04:35:00
12:55 AM,51.8,41.0,67,29.97,10.0,Calm,Calm,-,N/A,,Overcast,0,2013-03-22 04:55:00
1:15 AM,51.8,35.6,54,29.95,10.0,Calm,Calm,-,N/A,,Light Drizzle,0,2013-03-22 05:15:00
1:35 AM,51.8,33.8,50,29.94,10.0,Calm,Calm,-,N/A,,Scattered Clouds,0,2013-03-22 05:35:00
1:55 AM,51.8,35.6,54,29.97,10.0,Calm,Calm,-,N/A,,Scattered Clouds,0,2013-03-22 05:55:00
2:15 AM,51.8,35.6,54,29.97,10.0,Calm,Calm,-,N/A,,Mostly Cloudy,0,2013-03-22 06:15:00
2:35 AM,51.8,33.8,50,29.97,10.0,Calm,Calm,-,N/A,,Mostly Cloudy,0,2013-03-22 06:35:00
2:55 AM,51.8,32.0,47,29.97,10.0,Calm,Calm,-,N/A,,Mostly Cloudy,0,2013-03-22 06:55:00
3:15 AM,50.0,32.0,50,29.98,10.0,Calm,Calm,-,N/A,,Mostly Cloudy,0,2013-03-22 07:15:00
3:35 AM,50.0,33.8,54,29.98,10.0,Calm,Calm,-,N/A,,Mostly Cloudy,0,2013-03-22 07:35:00
3:55 AM,50.0,30.2,47,29.98,10.0,Calm,Calm,-,N/A,,Scattered Clouds,0,2013-03-22 07:55:00
4:15 AM,50.0,30.2,47,30.00,10.0,Calm,Calm,-,N/A,,Mostly Cloudy,0,2013-03-22 08:15:00
4:35 AM,50.0,30.2,47,29.98,10.0,Calm,Calm,-,N/A,,Overcast,0,2013-03-22 08:35:00
4:55 AM,50.0,28.4,43,29.98,10.0,Calm,Calm,-,N/A,,Mostly Cloudy,0,2013-03-22 08:55:00
5:15 AM,48.2,28.4,46,29.98,10.0,Calm,Calm,-,N/A,,Scattered Clouds,0,2013-03-22 09:15:00
5:35 AM,46.4,28.4,50,29.97,10.0,ENE,3.5,-,N/A,,Clear,70,2013-03-22 09:35:00
5:55 AM,46.4,28.4,50,29.97,10.0,Calm,Calm,-,N/A,,Mostly Cloudy,0,2013-03-22 09:55:00
6:15 AM,48.2,28.4,46,29.97,10.0,East,5.8,-,N/A,,Overcast,90,2013-03-22 10:15:00
6:35 AM,48.2,28.4,46,29.99,10.0,East,4.6,-,N/A,,Overcast,80,2013-03-22 10:35:00
6:55 AM,48.2,28.4,46,29.99,10.0,Calm,Calm,-,N/A,,Mostly Cloudy,0,2013-03-22 10:55:00
7:15 AM,48.2,28.4,46,30.00,10.0,ENE,4.6,-,N/A,,Mostly Cloudy,70,2013-03-22 11:15:00
7:35 AM,48.2,28.4,46,30.02,10.0,Calm,Calm,-,N/A,,Mostly Cloudy,0,2013-03-22 11:35:00
7:55 AM,48.2,28.4,46,30.02,10.0,Calm,Calm,-,N/A,,Scattered Clouds,0,2013-03-22 11:55:00
8:15 AM,48.2,30.2,50,30.04,10.0,Calm,Calm,-,N/A,,Mostly Cloudy,0,2013-03-22 12:15:00
8:35 AM,48.2,30.2,50,30.05,10.0,Calm,Calm,-,N/A,,Overcast,0,2013-03-22 12:35:00
8:55 AM,50.0,30.2,47,30.05,10.0,Calm,Calm,-,N/A,,Mostly Cloudy,0,2013-03-22 12:55:00
9:15 AM,50.0,30.2,47,30.05,10.0,Calm,Calm,-,N/A,,Mostly Cloudy,0,2013-03-22 13:15:00
9:35 AM,50.0,30.2,47,30.05,10.0,East,9.2,-,N/A,,Mostly Cloudy,90,2013-03-22 13:35:00
9:55 AM,50.0,30.2,47,30.05,10.0,ESE,6.9,-,N/A,,Scattered Clouds,110,2013-03-22 13:55:00
10:15 AM,51.8,32.0,47,30.06,10.0,East,6.9,-,N/A,,Clear,90,2013-03-22 14:15:00
10:35 AM,51.8,32.0,47,30.06,10.0,East,6.9,-,N/A,,Clear,90,2013-03-22 14:35:00
10:55 AM,53.6,32.0,44,30.06,10.0,NE,3.5,-,N/A,,Clear,50,2013-03-22 14:55:00
11:15 AM,55.4,32.0,41,30.05,10.0,ESE,5.8,-,N/A,,Clear,110,2013-03-22 15:15:00
11:35 AM,55.4,32.0,41,30.05,10.0,East,9.2,-,N/A,,Clear,80,2013-03-22 15:35:00
11:55 AM,57.2,32.0,38,30.04,10.0,ESE,8.1,-,N/A,,Clear,110,2013-03-22 15:55:00
12:15 PM,57.2,32.0,38,30.04,10.0,East,8.1,-,N/A,,Clear,90,2013-03-22 16:15:00
12:35 PM,59.0,33.8,39,30.04,10.0,ESE,4.6,-,N/A,,Clear,110,2013-03-22 16:35:00
12:55 PM,57.2,33.8,41,30.03,10.0,ENE,8.1,-,N/A,,Scattered Clouds,70,2013-03-22 16:55:00
1:15 PM,57.2,33.8,41,30.03,10.0,East,5.8,-,N/A,,Mostly Cloudy,80,2013-03-22 17:15:00
1:35 PM,57.2,33.8,41,30.03,10.0,East,5.8,-,N/A,Rain,Light Rain,80,2013-03-22 17:35:00
1:55 PM,57.2,35.6,44,30.04,10.0,Calm,Calm,-,N/A,,Light Drizzle,0,2013-03-22 17:55:00
2:15 PM,55.4,37.4,51,30.01,10.0,East,10.4,-,N/A,Rain,Light Rain,80,2013-03-22 18:15:00
2:35 PM,55.4,37.4,51,30.02,10.0,Calm,Calm,-,N/A,,Overcast,0,2013-03-22 18:35:00
2:55 PM,57.2,37.4,48,30.00,10.0,Calm,Calm,-,N/A,,Overcast,0,2013-03-22 18:55:00
3:15 PM,55.4,39.2,54,30.00,10.0,NE,5.8,-,N/A,,Overcast,50,2013-03-22 19:15:00
3:35 PM,55.4,42.8,63,30.00,10.0,ENE,8.1,-,N/A,Rain,Light Rain,60,2013-03-22 19:35:00
3:55 PM,53.6,44.6,72,29.98,10.0,ENE,4.6,-,N/A,,Overcast,70,2013-03-22 19:55:00
4:15 PM,53.6,44.6,72,29.99,10.0,ENE,5.8,-,N/A,,Overcast,70,2013-03-22 20:15:00
4:35 PM,53.6,42.8,67,29.99,10.0,ENE,6.9,-,N/A,,Overcast,60,2013-03-22 20:35:00
4:55 PM,53.6,44.6,72,30.00,10.0,Calm,Calm,-,N/A,,Overcast,0,2013-03-22 20:55:00
5:15 PM,55.4,44.6,67,29.98,10.0,ENE,8.1,-,N/A,,Overcast,70,2013-03-22 21:15:00
5:35 PM,55.4,44.6,67,29.99,10.0,ENE,5.8,-,N/A,,Overcast,60,2013-03-22 21:35:00
5:55 PM,55.4,44.6,67,29.97,10.0,East,10.4,-,N/A,,Overcast,80,2013-03-22 21:55:00
6:15 PM,55.4,44.6,67,29.98,10.0,ENE,6.9,-,N/A,,Overcast,70,2013-03-22 22:15:00
6:35 PM,55.4,44.6,67,29.99,10.0,ENE,6.9,-,N/A,,Overcast,60,2013-03-22 22:35:00
6:55 PM,55.4,44.6,67,29.99,10.0,ENE,5.8,-,N/A,,Overcast,70,2013-03-22 22:55:00
7:15 PM,55.4,44.6,67,29.99,10.0,ENE,5.8,-,N/A,,Overcast,70,2013-03-22 23:15:00
7:35 PM,55.4,44.6,67,29.97,10.0,East,8.1,-,N/A,,Overcast,80,2013-03-22 23:35:00
7:55 PM,53.6,44.6,72,29.99,10.0,Calm,Calm,-,N/A,,Overcast,0,2013-03-22 23:55:00
8:15 PM,53.6,44.6,72,29.99,10.0,East,3.5,-,N/A,,Overcast,80,2013-03-23 00:15:00
8:35 PM,53.6,44.6,72,29.98,10.0,East,5.8,-,N/A,,Mostly Cloudy,80,2013-03-23 00:35:00
8:55 PM,53.6,44.6,72,29.98,10.0,Calm,Calm,-,N/A,,Mostly Cloudy,0,2013-03-23 00:55:00
9:15 PM,51.8,44.6,76,29.98,10.0,Calm,Calm,-,N/A,,Scattered Clouds,0,2013-03-23 01:15:00
9:35 PM,51.8,44.6,76,29.98,10.0,Calm,Calm,-,N/A,,Mostly Cloudy,0,2013-03-23 01:35:00
9:55 PM,51.8,44.6,76,29.99,10.0,Calm,Calm,-,N/A,,Mostly Cloudy,0,2013-03-23 01:55:00
10:15 PM,51.8,44.6,76,29.99,10.0,Calm,Calm,-,N/A,,Scattered Clouds,0,2013-03-23 02:15:00
10:35 PM,50.0,44.6,82,29.99,10.0,Calm,Calm,-,N/A,,Scattered Clouds,0,2013-03-23 02:35:00
10:55 PM,51.8,44.6,76,29.99,10.0,Calm,Calm,-,N/A,,Mostly Cloudy,0,2013-03-23 02:55:00
11:15 PM,51.8,46.4,82,30.00,10.0,Calm,Calm,-,N/A,,Overcast,0,2013-03-23 03:15:00
11:35 PM,51.8,46.4,82,29.99,10.0,Calm,Calm,-,N/A,,Overcast,0,2013-03-23 03:35:00
11:55 PM,51.8,46.4,82,29.99,10.0,East,4.6,-,N/A,,Overcast,80,2013-03-23 03:55:00